When you browse on this site, cookies collect data to enhance your experience and personalize the content and advertising you see.
Visit our Privacy Policy to learn more. By continuing to use the site, you agree to this use of cookies and data.
  • In Spain
  • List of Countries
  • For 7 days
  • Water Temperature
  • Satellite Maps
  • Weather Map
  • Weather Widgets
  • user-avatar
    Login

    Hourly Weather Bihać

    Today, 18 November, Sunday

    Time Temperature Precipitation Wind Pressure Humidity
    00:00 -3°C° 0 mm 6 mps 714 mmHg 74%
    01:00 -4°C° 0 mm 6 mps 714 mmHg 75%
    02:00 -4°C° 0 mm 6 mps 714 mmHg 76%
    03:00 -4°C° 0 mm 6 mps 714 mmHg 76%
    04:00 -4°C° 0 mm 6 mps 713 mmHg 76%
    05:00 -4°C° 0 mm 6 mps 713 mmHg 76%
    06:00 -4°C° 0 mm 6 mps 713 mmHg 75%
    07:00 -4°C° 0 mm 6 mps 713 mmHg 75%
    08:00 -3°C° 0 mm 6 mps 712 mmHg 72%
    09:00 -2°C° 0 mm 6 mps 712 mmHg 69%
    10:00 -1°C° 0 mm 6 mps 712 mmHg 66%
    11:00 0°C° 0 mm 5 mps 712 mmHg 65%
    12:00 0°C° 0 mm 5 mps 712 mmHg 64%
    13:00 +1°C° 0 mm 5 mps 711 mmHg 63%
    14:00 0°C° 0 mm 5 mps 711 mmHg 66%
    15:00 0°C° 0 mm 5 mps 710 mmHg 68%
    16:00 -1°C° 0 mm 5 mps 709 mmHg 71%
    17:00 -1°C° 0 mm 4 mps 709 mmHg 73%
    18:00 -1°C° 0 mm 4 mps 709 mmHg 75%
    19:00 -2°C° 0 mm 4 mps 708 mmHg 77%
    20:00 -2°C° 0 mm 4 mps 708 mmHg 78%
    21:00 -2°C° 0 mm 4 mps 708 mmHg 79%
    22:00 -2°C° 0 mm 4 mps 707 mmHg 79%
    23:00 -2°C° 0 mm 4 mps 707 mmHg 80%

    Tomorrow, 19 November, Monday

    Time Temperature Precipitation Wind Pressure Humidity
    00:00 -2°C° 0 mm 4 mps 707 mmHg 80%
    01:00 -3°C° 0 mm 4 mps 707 mmHg 81%
    02:00 -3°C° 0 mm 4 mps 706 mmHg 81%
    03:00 -2°C° 0 mm 3 mps 706 mmHg 82%
    04:00 -2°C° 0 mm 3 mps 706 mmHg 82%
    05:00 -2°C° 0 mm 3 mps 706 mmHg 83%
    06:00 -2°C° 0 mm 3 mps 706 mmHg 84%
    07:00 -2°C° 0 mm 3 mps 706 mmHg 85%
    08:00 -1°C° 0 mm 3 mps 706 mmHg 79%
    09:00 0°C° 0 mm 3 mps 707 mmHg 73%
    10:00 +1°C° 0 mm 3 mps 707 mmHg 67%
    11:00 +2°C° 0 mm 3 mps 707 mmHg 64%
    12:00 +3°C° 0 mm 3 mps 707 mmHg 61%
    13:00 +4°C° 0 mm 3 mps 707 mmHg 58%
    14:00 +3°C° 0 mm 3 mps 707 mmHg 63%
    15:00 +2°C° 0 mm 3 mps 706 mmHg 67%
    16:00 +2°C° 0 mm 3 mps 706 mmHg 71%
    17:00 +1°C° 0.1 mm 3 mps 706 mmHg 75%
    18:00 0°C° 0.1 mm 4 mps 706 mmHg 78%
    19:00 0°C° 0.1 mm 4 mps 706 mmHg 81%
    20:00 0°C° 0.4 mm 4 mps 705 mmHg 82%
    21:00 0°C° 0.4 mm 5 mps 705 mmHg 83%
    22:00 0°C° 0.4 mm 5 mps 704 mmHg 84%
    23:00 0°C° 2.8 mm 5 mps 704 mmHg 86%

    Day after tomorrow, 20 November, Tuesday

    Time Temperature Precipitation Wind Pressure Humidity
    00:00 -1°C° 2.8 mm 6 mps 703 mmHg 89%
    01:00 -1°C° 2.8 mm 6 mps 702 mmHg 92%
    02:00 -1°C° 4.1 mm 6 mps 701 mmHg 93%
    03:00 -1°C° 4.1 mm 6 mps 701 mmHg 94%
    04:00 0°C° 4.1 mm 5 mps 700 mmHg 95%
    05:00 -1°C° 4 mm 6 mps 700 mmHg 95%
    06:00 -1°C° 4 mm 6 mps 699 mmHg 95%
    07:00 +1°C° 4 mm 6 mps 699 mmHg 95%
    08:00 +2°C° 3.5 mm 6 mps 699 mmHg 95%
    09:00 +3°C° 3.5 mm 6 mps 699 mmHg 95%
    10:00 +4°C° 3.5 mm 6 mps 699 mmHg 95%
    11:00 +4°C° 2.1 mm 6 mps 699 mmHg 95%
    12:00 +5°C° 2.1 mm 6 mps 699 mmHg 94%
    13:00 +5°C° 2.1 mm 6 mps 699 mmHg 93%
    14:00 +6°C° 1.3 mm 5 mps 699 mmHg 94%
    15:00 +6°C° 1.3 mm 5 mps 699 mmHg 94%
    16:00 +6°C° 1.3 mm 4 mps 699 mmHg 94%
    17:00 +6°C° 0.9 mm 4 mps 700 mmHg 95%
    18:00 +5°C° 0.9 mm 3 mps 700 mmHg 96%
    19:00 +5°C° 0.9 mm 3 mps 700 mmHg 97%
    20:00 +5°C° 0.1 mm 3 mps 701 mmHg 97%
    21:00 +5°C° 0.1 mm 3 mps 702 mmHg 97%
    22:00 +6°C° 0.1 mm 2 mps 702 mmHg 97%
    23:00 +5°C° 0 mm 2 mps 702 mmHg 97%

    21 November, Wednesday

    Time Temperature Precipitation Wind Pressure Humidity
    00:00 +5°C° 0 mm 2 mps 703 mmHg 97%
    01:00 +5°C° 0 mm 2 mps 703 mmHg 96%
    02:00 +5°C° 0 mm 2 mps 703 mmHg 96%
    03:00 +5°C° 0 mm 2 mps 704 mmHg 96%
    04:00 +4°C° 0 mm 2 mps 704 mmHg 96%
    05:00 +4°C° 0 mm 2 mps 704 mmHg 96%
    06:00 +5°C° 0 mm 1 mps 705 mmHg 96%
    07:00 +4°C° 0 mm 1 mps 705 mmHg 95%
    08:00 +5°C° 0 mm 1 mps 706 mmHg 93%
    09:00 +6°C° 0 mm 1 mps 706 mmHg 91%
    10:00 +7°C° 0 mm 1 mps 707 mmHg 89%
    11:00 +8°C° 0 mm 1 mps 707 mmHg 87%
    12:00 +9°C° 0 mm 1 mps 707 mmHg 85%
    13:00 +9°C° 0 mm 1 mps 708 mmHg 83%
    14:00 +9°C° 0 mm 1 mps 708 mmHg 85%
    15:00 +8°C° 0 mm 1 mps 708 mmHg 87%
    16:00 +7°C° 0 mm 1 mps 708 mmHg 89%
    17:00 +7°C° 0 mm 1 mps 708 mmHg 88%
    18:00 +5°C° 0 mm 2 mps 708 mmHg 87%
    19:00 +5°C° 0 mm 2 mps 709 mmHg 86%
    20:00 +5°C° 0 mm 2 mps 709 mmHg 86%
    21:00 +5°C° 0 mm 2 mps 709 mmHg 85%
    22:00 +5°C° 0 mm 2 mps 709 mmHg 85%
    23:00 +5°C° 0 mm 2 mps 709 mmHg 85%

    22 November, Thursday

    Time Temperature Precipitation Wind Pressure Humidity
    00:00 +5°C° 0 mm 2 mps 709 mmHg 85%
    01:00 +5°C° 0 mm 2 mps 709 mmHg 85%
    02:00 +5°C° 0.1 mm 2 mps 709 mmHg 84%
    03:00 +4°C° 0.1 mm 3 mps 709 mmHg 84%
    04:00 +4°C° 0.1 mm 3 mps 710 mmHg 84%
    05:00 +4°C° 0.2 mm 3 mps 710 mmHg 85%
    06:00 +4°C° 0.2 mm 3 mps 710 mmHg 86%
    07:00 +4°C° 0.2 mm 3 mps 710 mmHg 87%
    08:00 +5°C° 0.3 mm 3 mps 710 mmHg 88%
    09:00 +8°C° 0.3 mm 3 mps 711 mmHg 89%
    10:00 +9°C° 0.3 mm 2 mps 711 mmHg 90%
    11:00 +9°C° 0.2 mm 2 mps 711 mmHg 88%
    12:00 +10°C° 0.2 mm 2 mps 712 mmHg 87%
    13:00 +10°C° 0.2 mm 2 mps 712 mmHg 86%
    14:00 +11°C° 0.1 mm 1 mps 712 mmHg 88%
    15:00 +10°C° 0.1 mm 1 mps 712 mmHg 90%
    16:00 +9°C° 0.1 mm 1 mps 712 mmHg 92%
    17:00 +9°C° 0 mm 1 mps 712 mmHg 93%
    18:00 +8°C° 0 mm 1 mps 712 mmHg 94%
    19:00 +7°C° 0 mm 1 mps 713 mmHg 94%
    20:00 +7°C° 0 mm 1 mps 713 mmHg 94%
    21:00 +7°C° 0 mm 1 mps 713 mmHg 94%
    22:00 +7°C° 0 mm 1 mps 713 mmHg 93%
    23:00 +7°C° 0 mm 1 mps 713 mmHg 93%

    23 November, Friday

    Time Temperature Precipitation Wind Pressure Humidity
    00:00 +7°C° 0 mm 1 mps 714 mmHg 92%
    01:00 +7°C° 0 mm 1 mps 714 mmHg 91%
    02:00 +7°C° 0 mm 1 mps 714 mmHg 90%
    03:00 +6°C° 0 mm 1 mps 714 mmHg 90%
    04:00 +5°C° 0 mm 2 mps 714 mmHg 89%
    05:00 +5°C° 0 mm 2 mps 714 mmHg 89%
    06:00 +5°C° 0 mm 2 mps 714 mmHg 88%
    07:00 +5°C° 0 mm 2 mps 714 mmHg 87%
    08:00 +7°C° 0.1 mm 3 mps 714 mmHg 85%
    09:00 +8°C° 0.1 mm 3 mps 714 mmHg 84%
    10:00 +9°C° 0.1 mm 3 mps 714 mmHg 82%
    11:00 +10°C° 0.6 mm 3 mps 714 mmHg 83%
    12:00 +10°C° 0.6 mm 3 mps 714 mmHg 85%
    13:00 +11°C° 0.6 mm 3 mps 714 mmHg 86%
    14:00 +10°C° 0.8 mm 3 mps 714 mmHg 88%
    15:00 +10°C° 0.8 mm 2 mps 714 mmHg 90%
    16:00 +9°C° 0.8 mm 2 mps 714 mmHg 92%
    17:00 +9°C° 0.2 mm 2 mps 714 mmHg 93%
    18:00 +8°C° 0.2 mm 2 mps 714 mmHg 94%
    19:00 +8°C° 0.2 mm 2 mps 714 mmHg 94%
    20:00 +8°C° 0.4 mm 2 mps 714 mmHg 94%
    21:00 +8°C° 0.4 mm 2 mps 714 mmHg 95%
    22:00 +8°C° 0.4 mm 2 mps 714 mmHg 95%
    23:00 +8°C° 0.5 mm 2 mps 714 mmHg 95%
    Show more